Flag for Cyprus Weather past 2 weeks in Kyrenia, Northern Cyprus, Cyprus

50 °F

Rain. Cloudy.

Feels Like: 50 °F
Forecast: 51 / 73 °F
Wind: No wind

Location: Ercan

Current Time: Nov 27, 2015 at 7:27:55 AM

Latest Report: Nov 27, 2015 at 6:50 AM

Visibility: 3 mi

Pressure: 29.95 "Hg

Humidity: 94%

Dew point: 48 °F

Location of KyreniaLocation

Historic Weather in Kyrenia — Graph


Kyrenia temperature yesterday

Maximum temperature yesterday: 77 °F (at 12:20 PM)
Minimum temperature yesterday: 52 °F (at 6:20 AM)
Average temperature yesterday: 63 °F

Past Weeks' High & Low Weather Summary

High81 °F (Nov 24, 1:20 PM)94% (Nov 21, 6:50 AM)30.24 "Hg (Nov 21, 6:50 AM)
Low45 °F (Nov 21, 6:20 AM)12% (Nov 24, 11:50 AM)29.74 "Hg (Nov 16, 1:20 PM)
Average62 °F58%30.04 "Hg
* Reported Nov 12 5:20 AM — Nov 27 5:20 AM, Kyrenia, Weather by CustomWeather, © 2015

Note: Actual official high and low records may vary slightly from our data, if they occured in-between our weather recording intervals... More about our weather records


Kyrenia weather history for previous 24 hours

Time TempWeatherWind HumidityBarometerVisibility
5:20 AM
Fri, Nov 27
48 °FFog.No wind94%29.95 "Hg3 mi
4:50 AM52 °FFog.No wind94%29.95 "Hg3 mi
4:20 AM52 °FFog.No wind94%29.95 "Hg4 mi
3:50 AM52 °FPassing clouds.No wind94%29.95 "Hg4 mi
3:20 AM52 °FPassing clouds.7 mph94%29.95 "Hg4 mi
2:50 AM52 °FPassing clouds.7 mph94%29.95 "Hg4 mi
2:20 AM55 °FPassing clouds.No wind94%29.95 "Hg4 mi
1:50 AM54 °FPassing clouds.No wind88%29.95 "Hg4 mi
1:20 AM55 °FPassing clouds.5 mph88%29.95 "Hg4 mi
12:50 AM54 °FPassing clouds.6 mph94%29.95 "Hg4 mi
11:50 PM
Thu, Nov 26
55 °FPassing clouds.No wind94%29.95 "Hg5 mi
11:20 PM59 °FPassing clouds.No wind88%29.92 "Hg5 mi
10:50 PM57 °FPassing clouds.No wind94%29.95 "Hg5 mi
10:20 PM57 °FPassing clouds.No wind94%29.92 "HgN/A
9:50 PM59 °FPassing clouds.No wind88%29.92 "HgN/A
9:20 PM59 °FPassing clouds.7 mph88%29.92 "HgN/A
8:50 PM61 °FPassing clouds.5 mph83%29.92 "HgN/A
8:20 PM63 °FPassing clouds.No wind83%29.92 "HgN/A
7:50 PM64 °FPassing clouds.5 mph78%29.89 "HgN/A
7:20 PM63 °FPassing clouds.No wind77%29.89 "HgN/A
6:50 PM66 °FPassing clouds.7 mph73%29.89 "HgN/A
6:20 PM66 °FPassing clouds.6 mph73%29.89 "HgN/A
5:50 PM66 °FPassing clouds.7 mph73%29.89 "HgN/A
5:20 PM68 °FPassing clouds.8 mph73%29.86 "HgN/A
4:50 PM70 °FPassing clouds.9 mph64%29.86 "HgN/A
4:20 PM72 °FPassing clouds.14 mph57%29.86 "HgN/A
3:50 PM73 °FPassing clouds.15 mph53%29.86 "HgN/A
3:20 PM73 °FScattered clouds.16 mph53%29.86 "HgN/A
2:50 PM75 °FScattered clouds.20 mph57%29.83 "HgN/A
2:20 PM75 °FScattered clouds.18 mph61%29.86 "HgN/A
1:50 PM75 °FScattered clouds.18 mph57%29.86 "HgN/A
1:20 PM77 °FScattered clouds.15 mph47%29.86 "HgN/A
12:50 PM75 °FScattered clouds.17 mph54%29.86 "HgN/A
12:20 PM77 °FScattered clouds.15 mph47%29.86 "HgN/A
11:50 AM75 °FScattered clouds.16 mph54%29.86 "HgN/A
11:20 AM75 °FScattered clouds.16 mph54%29.89 "HgN/A
10:50 AM75 °FScattered clouds.16 mph54%29.89 "HgN/A
10:20 AM70 °FScattered clouds.9 mph60%29.89 "HgN/A
9:50 AM66 °FScattered clouds.8 mph64%29.92 "HgN/A
9:20 AM63 °FScattered clouds.6 mph68%29.92 "HgN/A
8:50 AM61 °FScattered clouds.6 mph68%29.92 "HgN/A
8:20 AM59 °FScattered clouds.6 mph72%29.92 "HgN/A
7:50 AM54 °FScattered clouds.5 mph77%29.92 "HgN/A
7:20 AM54 °FScattered clouds.No wind77%29.92 "HgN/A
Weather by CustomWeather, © 2015

See weather overviewHow to use our weather pages